Flag for U.S.A. Weather past 2 weeks in Tuba City, Arizona, U.S.A.

Now
32 °F

Clear.


Feels Like: 29 °F
Forecast: 42 / 68 °F
Wind: 3 mph from East

Location: Grand Canyon National Park Airport

Current Time: May 22, 2015 at 2:46:19 AM

Latest Report: May 22, 2015 at 1:54 AM


Visibility: 10 mi

Pressure: 29.88 "Hg

Humidity: 88%

Dew point: 29 °F

Location of Tuba CityLocation

Historic Weather in Tuba City — Graph

°F

Tuba City temperature yesterday

Maximum temperature yesterday: 64 °F (at 2:54 PM)
Minimum temperature yesterday: 34 °F (at 10:54 PM)
Average temperature yesterday: 49 °F

Past Weeks' High & Low Weather Summary

 TemperatureHumidityPressure
High68 °F (May 12, 3:54 PM)100% (May 16, 4:01 AM)30.04 "Hg (May 16, 4:01 AM)
Low25 °F (May 7, 5:54 AM)12% (May 20, 10:54 AM)29.67 "Hg (May 8, 4:54 AM)
Average47 °F57%29.87 "Hg
* Reported May 7 1:54 AM — May 22 1:54 AM, Tuba City, Weather by CustomWeather, © 2015

Note: Actual official high and low records may vary slightly from our data, if they occured in-between our weather recording intervals... More about our weather records

Advertising

Tuba City weather history for previous 24 hours

 ConditionsComfort  
Time TempWeatherWind HumidityBarometerVisibility
1:54 AM
Fri, May 22
32 °FClear.3 mph88%29.88 "Hg10 mi
12:54 AM33 °FClear.3 mph88%29.89 "Hg10 mi
11:54 PM
Thu, May 21
34 °FClear.3 mph92%29.88 "Hg10 mi
10:54 PM34 °FClear.3 mph92%29.89 "Hg10 mi
9:54 PM38 °FClear.No wind86%29.85 "Hg10 mi
8:54 PM44 °FClear.No wind73%29.83 "Hg10 mi
7:54 PM54 °FPartly sunny.6 mph38%29.81 "Hg10 mi
6:54 PM53 °FLight rain. Overcast.6 mph41%29.82 "Hg10 mi
5:54 PM53 °FMostly cloudy.8 mph59%29.82 "Hg10 mi
4:54 PM59 °FMostly cloudy.7 mph27%29.79 "Hg10 mi
3:54 PM61 °FPassing clouds.15 mph21%29.80 "Hg10 mi
2:54 PM64 °FPassing clouds.10 mph22%29.81 "Hg10 mi
1:54 PM62 °FPassing clouds.12 mph21%29.85 "Hg10 mi
12:54 PM59 °FPartly sunny.7 mph24%29.88 "Hg10 mi
11:54 AM58 °FSunny.10 mph31%29.89 "Hg10 mi
10:54 AM56 °FSunny.12 mph33%29.89 "Hg10 mi
9:54 AM55 °FSunny.10 mph34%29.88 "Hg10 mi
8:54 AM52 °FSunny.6 mph43%29.88 "Hg10 mi
7:54 AM45 °FSunny.No wind68%29.88 "Hg10 mi
6:54 AM42 °FSunny.No wind73%29.87 "Hg10 mi
5:54 AM43 °FOvercast.3 mph68%29.85 "Hg10 mi
4:54 AM42 °FPassing clouds.No wind71%29.87 "Hg10 mi
3:54 AM41 °FClear.No wind70%29.87 "Hg10 mi
2:54 AM41 °FClear.No wind67%29.88 "Hg10 mi
Weather by CustomWeather, © 2015

See weather overviewHow to use our weather pages